Probability
0 0 0 0 0 0 0 0 0 0 0 0 0 0 0 0 0 0 0 0 0 0 0 0 0 0 0 0 0 0 0 0 0 0 0 0 0 0
0 0 0 0 0 0 0 0 0 0 0 0 0 0 0 0 0 0 0 0 0 0 0 0 0 0 0 0 0 0 0 0 0 0 0 0 0 0
0 0 0 0 0 0 0 0 0 0 0 0 0 0 0 0 0 0 0 0 0 0 0 0 0 0 0 0 0 0 0 0 0 0 0 0 0 0
0 0 0 0 0 0 0 0 0 0 0 0 0 0 0 0 0 0 0 0 0 0 0 0 0 0 0 0 0 0 0 0 0 0 0 0 0 0
0 0 0 0 0 0 0 0 0 0 0 0 0 0 0 0 0 0 0 0 0 0 0 0 0 0 0 0 0 0 0 0 0 0 0 0 0 0
0 0 0 0 0 0 0 0 0 0 0 0 0 0 0 0 0 0 0 0 0 0 0 0 0 0 0 0 0 0 0 0 0 0 0 0 0 0
0 0 0 0 0 0 0 0 0 0 0 0 0 0 0 0 0 0 0 0 0 0 0 0 0 0 0 0 0 0 0 0 0 0 0 0 0 0
0 0 0 0 0 0 0 0 0 0 0 0 0 0 0 0 0 0 0 0 0 0 0 0 0 0 0 0 0 0 0 0 0 0 0 0 0 0
0 0 0 0 0 0 0 0 0 0 0 0 0 0 0 0 0 0 0 0 0 0 0 0 0 0 0 0 0 0 0 0 0 0 0 0 0 0
0 0 0 0 0 0 0 0 0 0 0 0 0 0 0 0 0 0 0 0 0 0 0 0 0 0 0 0 0 0 0 0 0 0 0 0 0 0
0 0 0 0 0 0 0 0 0 0 0 0 0 0 0 0 0 0 0 0 0 0 0 0 0 0 0 0 0 0 0 0 0 0 0 0 0 0
0 0 0 0 0 0 0 0 0 0 0 0 0 0 0 0 0 0 0 0 0 0 0 0 0 0 0 0 0 0 0 0 0 0 0 0 0 0
0 0 0 0 0 0 0 0 0 0 0 0 0 0 0 0 0 0 0 0 0 0 0 0 0 0 0 0 0 0 0 0 0 0 0 0 0 0
0 0 0 0 0 0 0 0 0 0 0 0 0 0 0 0 0 0 0 0 0 0 0 0 0 0 0 0 0 0 0 0 0 0 0 0 0 0
0 0 0 0 0 0 0 0 0 0 0 0 0 0 0 0 0 0 0 0 0 0 0 0 0 0 0 0 0 0 0 0 0 0 0 0 0 0
0 0 0 0 0 0 0 0 0 0 0 0 0 0 0 0 0 0 0 0 0 0 0 0 0 0 0 0 0 0 0 0 0 0 0 0 0 0
0 0 0 0 0 0 0 0 0 0 0 0 0 0 0 0 0 0 0 0 0 0 0 0 0 0 0 0 0 0 0 0 0 0 0 0 0 0
0 0 0 0 0 0 0 0 0 0 0 0 0 0 0 0 0 0 0 0 0 0 0 0 0 0 0 0 0 0 0 0 0 0 0 0 0 0
0 0 0 0 0 0 0 0 0 0 0 0 0 0 0 0 0 0 0 0 0 0 0 0 0 0 0 0 0 0 0 0 0 0 0 0 0 0
0 0 0 0 0 0 0 0 0 0 0 0 0 0 0 0 0 0 0 0 0 0 0 0 0 0 0 0 0 0 0 0 0 0 0 0 0 0
0 0 0 0 0 0 0 0 0 0 0 0 0 0 0 0 0 0 0 0 0 0 0 0 0 0 0 0 0 0 0 0 0 0 0 0 0 0
0 0 0 0 0 0 0 0 0 0 0 0 0 0 0 0 0 0 0 0 0 0 0 0 0 0 0 0 0 0 0 0 0 0 0 0 0 0
0 0 0 0 0 0 0 0 0 0 0 0 0 0 0 0 0 0 0 0 0 0 0 0 0 0 0 0 0 0 0 0 0 0 0 0 0 0
Wind_Speed
0 0 1 1 1 1 2 3 4 4 4 3 3 3 4 5 7 7 8 10 13 14 14 15 15 16 17 17 17 18 18 18 18 18 18 19 19 19
0 1 1 1 1 1 2 2 3 4 4 4 4 5 6 5 7 8 8 12 12 13 14 15 16 16 17 17 17 17 18 18 18 18 18 19 19 19
1 1 1 1 1 1 2 2 3 4 5 5 5 5 7 7 7 7 7 8 8 12 14 16 16 16 16 17 17 18 18 18 18 18 18 19 19 19
1 1 1 1 2 2 2 2 3 3 5 7 6 5 7 8 8 9 7 7 8 11 15 15 15 16 16 17 17 17 17 18 18 18 18 19 19 19
1 2 2 2 2 2 2 3 3 3 4 5 6 5 6 6 8 7 8 7 7 9 12 12 13 15 16 15 15 15 16 16 17 17 18 18 19 19
1 1 2 2 3 3 3 3 3 4 4 5 5 5 5 6 6 6 7 7 7 7 9 10 12 13 13 14 14 15 15 16 17 18 18 18 18 19
1 1 2 2 3 3 3 3 4 4 4 4 5 5 5 5 5 5 7 8 7 6 7 8 8 8 8 10 11 14 16 17 17 18 18 18 18 19
2 2 2 2 3 4 5 6 5 5 5 5 5 6 7 6 6 6 7 8 7 5 7 9 7 8 7 7 12 16 17 18 18 18 19 19 19 20
2 2 2 2 3 3 5 6 6 7 7 6 7 7 7 7 7 7 7 7 8 8 8 9 7 8 7 8 15 16 17 18 18 19 20 20 20 20
3 3 3 3 3 4 4 4 5 5 6 6 7 7 7 7 6 7 8 8 8 6 6 7 7 8 8 8 12 15 17 18 19 20 20 21 21 21
3 3 4 4 4 5 4 5 5 5 5 7 8 8 9 8 6 5 5 6 7 5 3 5 6 8 9 7 8 13 16 17 18 19 20 21 21 20
3 3 4 5 5 5 4 5 6 6 5 5 5 6 6 6 6 5 5 5 6 5 2 4 5 7 8 6 6 8 9 14 18 19 20 20 20 13
3 3 3 5 6 6 5 4 6 6 4 4 4 4 4 4 4 4 4 5 6 6 4 4 5 5 6 8 8 8 8 9 10 12 15 18 19 15
4 3 3 4 6 6 5 5 6 5 3 4 4 4 4 4 4 5 6 6 7 9 8 6 6 7 7 9 9 8 8 9 9 9 9 14 15 17
3 4 5 5 5 4 5 6 4 3 3 4 5 5 5 5 5 5 6 6 8 8 8 8 8 8 8 9 10 10 10 9 8 8 10 10 10 10
4 3 4 5 4 4 4 4 3 3 4 5 5 5 5 4 5 5 5 5 6 6 5 7 8 9 9 11 10 11 10 9 9 10 11 10 9 9
2 2 2 2 3 3 3 3 3 3 4 4 5 5 5 5 5 4 5 5 5 6 6 5 6 8 10 10 10 10 10 10 10 10 11 12 10 9
3 3 3 4 4 4 4 4 4 4 4 4 5 5 5 5 6 5 5 5 7 7 7 6 6 6 6 7 10 10 9 9 10 10 10 11 12 9
4 4 5 5 5 4 4 5 5 4 4 5 5 5 5 5 5 5 5 6 6 7 7 6 5 5 7 9 6 7 8 9 10 10 9 10 12 12
5 5 6 5 5 5 5 5 5 5 4 5 5 5 5 5 6 6 6 6 7 7 7 6 5 5 7 8 8 8 11 10 9 10 10 10 10 14
6 6 6 6 5 5 5 5 5 6 6 5 5 6 5 5 6 6 6 7 7 7 8 7 6 7 7 6 8 8 8 10 12 10 11 10 10 9
6 6 6 6 6 6 6 5 6 6 6 6 6 5 5 6 7 7 6 6 6 7 8 7 7 6 5 6 9 10 11 11 12 15 15 13 9 9
6 6 6 6 6 5 5 6 7 6 6 6 6 6 5 6 6 6 6 6 6 7 7 7 6 5 6 7 8 9 12 12 10 10 9 12 16 18
Wind_Direction
224 282 297 302 292 286 282 280 283 287 295 302 304 314 318 312 319 311 309 318 318 318 318 318 320 319 318 316 315 315 315 313 313 312 311 310 308 306
223 231 260 297 294 282 279 278 277 279 284 299 299 309 313 310 312 308 307 311 306 312 314 314 316 316 316 315 315 316 315 314 314 312 312 311 308 306
216 220 246 266 264 273 273 270 270 271 274 286 293 302 304 309 310 307 306 304 303 309 311 311 312 312 314 315 315 315 315 313 313 312 311 311 309 308
209 218 243 253 261 267 271 275 275 277 278 287 295 301 299 308 309 307 307 305 304 311 311 309 310 313 315 315 316 318 319 317 315 313 312 311 311 309
226 232 249 251 264 272 277 275 276 276 277 283 294 299 299 308 310 308 309 306 308 311 311 308 311 313 315 316 319 321 321 319 317 316 315 314 312 311
241 254 261 261 268 273 273 274 278 278 280 284 290 296 300 307 307 312 314 317 314 313 311 314 313 311 311 314 318 320 319 318 316 316 315 313 312 310
234 254 265 279 283 280 278 278 276 277 281 285 289 297 301 308 310 315 310 314 310 309 315 313 313 310 312 314 316 319 319 317 317 316 316 315 314 312
243 254 258 257 269 269 276 285 288 283 281 282 285 289 295 301 305 306 308 312 311 327 321 309 309 305 309 310 315 316 316 317 318 318 317 315 313 311
248 252 253 261 260 261 270 275 277 278 276 276 279 283 291 297 300 298 299 298 296 311 313 299 304 302 307 308 311 312 314 318 318 318 316 315 313 312
252 255 260 265 265 268 273 276 278 275 272 271 275 283 290 296 293 292 295 295 290 289 299 293 305 305 309 303 304 308 314 317 317 317 316 315 314 312
257 259 259 263 277 274 269 275 282 283 282 281 284 288 294 298 298 295 298 300 300 303 308 292 304 312 304 293 298 307 312 313 314 316 316 315 315 313
258 260 261 267 281 276 267 271 280 289 295 299 293 290 290 290 294 285 282 285 294 296 308 303 300 319 307 296 303 307 307 307 310 313 314 314 315 313
257 260 264 270 275 278 271 271 282 297 299 294 292 292 291 289 288 283 275 270 272 271 286 300 293 297 285 296 302 300 301 305 308 307 308 310 312 311
258 263 271 279 278 281 277 284 291 293 289 290 290 291 294 295 296 292 281 271 265 269 278 278 275 282 288 290 292 299 304 303 303 302 304 307 308 306
254 262 274 280 281 280 283 289 286 275 277 279 282 287 292 293 294 292 286 280 276 270 268 264 265 272 271 275 284 293 303 304 298 302 307 306 303 304
257 266 272 276 272 277 282 276 268 269 271 273 280 285 290 290 287 292 295 299 294 289 273 268 269 270 272 272 275 282 289 292 299 304 305 301 296 292
241 251 257 265 265 265 267 268 266 262 262 268 273 280 285 286 287 291 290 291 286 294 301 297 285 278 270 271 275 275 285 291 295 305 307 302 297 294
222 246 252 254 258 262 264 266 262 260 263 265 267 271 277 282 287 289 286 284 286 289 294 302 308 305 291 262 244 269 284 293 301 304 301 299 298 299
235 247 250 251 254 256 257 258 262 264 264 261 264 268 272 276 280 284 285 285 286 289 291 294 296 300 301 303 286 252 282 296 301 301 299 297 295 298
235 242 247 250 251 253 255 257 262 262 257 258 261 264 267 270 274 277 278 280 286 289 290 288 284 285 283 292 294 289 280 285 295 299 302 300 293 293
238 241 244 247 249 251 252 254 256 257 258 258 259 262 262 265 269 271 274 277 276 280 285 287 291 293 286 282 282 285 289 285 287 293 301 303 304 303
241 241 242 243 245 247 249 250 253 255 256 254 257 258 259 260 264 267 269 272 273 276 283 288 296 293 278 274 285 295 302 307 300 294 286 282 295 300
244 246 246 244 242 243 244 246 250 253 253 254 256 257 258 261 263 263 266 267 271 277 286 292 295 290 281 281 288 295 302 309 312 312 303 298 295 289